Weather History for KMDJ - December, 2013

Change the Weather History Date:

Wednesday, December 4, 2013

  Actual Average Record
Temperature  
Mean Temperature 74 °F -  
Max Temperature 75 °F - - ()
Min Temperature 73 °F - - ()
Cooling Degree Days 9    
Growing Degree Days 24 (Base 50)    
Moisture  
Dew Point 72 °F    
Average Humidity 91    
Maximum Humidity 94    
Minimum Humidity 89    
Precipitation  
Precipitation 0.00 in - - ()
Sea Level Pressure  
Sea Level Pressure 29.93 in    
Wind  
Wind Speed 19 mph (South)    
Max Wind Speed 24 mph    
Max Gust Speed 26 mph    
Visibility 10 miles    
Events      
Averages and records for this station are not official NWS values.
T = Trace of Precipitation, MM = Missing Value Source: NWS Daily Summary

Daily Weather History Graph

Daily Weather History Graph

Search for Another Location

Airport or City:

Trip Planner

Search our weather history database for the weather conditions in past years. The results will help you decide how hot, cold, wet, or windy it might be!

Date:

Astronomy

Dec. 04, 2013 Rise Set
Actual Time 6:37 AM CST 5:01 PM CST
Civil Twilight 6:11 AM CST 5:27 PM CST
Nautical Twilight 5:42 AM CST 5:56 PM CST
Astronomical Twilight 5:13 AM CST 6:25 PM CST
Moon 8:08 AM CST (12/4) 7:08 PM CST (12/4)
Length of Visible Light 11h 16m
Length of Day
10h 24m
Waxing Crescent, 4% of the Moon is Illuminated
Dec 4
Waxing Crescent
Dec 9
First Quarter
Dec 17
Full
Dec 25
Last Quarter
Jan 1
New

Hourly Weather History & Observations

Time (CST) Temp. Dew Point Humidity Pressure Visibility Wind Dir Wind Speed Gust Speed Precip Events Conditions
12:15 AM 75.2 °F 71.6 °F 89% 29.87 in 10.0 mi South 24.2 mph - N/A   Clear
12:35 AM 75.2 °F 71.6 °F 89% 29.87 in 10.0 mi South 21.9 mph - N/A   Clear
12:55 AM 75.2 °F 71.6 °F 89% 29.87 in 10.0 mi South 21.9 mph - N/A   Partly Cloudy
1:15 AM 75.2 °F 71.6 °F 89% 29.87 in 10.0 mi South 24.2 mph - N/A   Scattered Clouds
1:35 AM 75.2 °F 71.6 °F 89% 29.88 in 10.0 mi South 20.7 mph 26.5 mph N/A   Mostly Cloudy
1:55 AM 75.2 °F 71.6 °F 89% 29.88 in 10.0 mi SSW 19.6 mph - N/A   Scattered Clouds
2:15 AM 75.2 °F 71.6 °F 89% 29.88 in 10.0 mi South 18.4 mph - N/A   Partly Cloudy
2:35 AM 75.2 °F 71.6 °F 89% 29.89 in 10.0 mi SSW 19.6 mph - N/A   Scattered Clouds
2:55 AM 75.2 °F 71.6 °F 89% 29.89 in 10.0 mi South 20.7 mph - N/A   Partly Cloudy
3:15 AM 75.2 °F 71.6 °F 89% 29.89 in 10.0 mi South 19.6 mph - N/A   Partly Cloudy
3:35 AM 75.2 °F 71.6 °F 89% 29.89 in 10.0 mi South 19.6 mph - N/A   Clear
3:55 AM 75.2 °F 71.6 °F 89% 29.89 in 10.0 mi SSW 18.4 mph - N/A   Partly Cloudy
4:15 AM 75.2 °F 71.6 °F 89% 29.89 in 10.0 mi SSW 16.1 mph - N/A   Clear
4:35 AM 75.2 °F 71.6 °F 89% 29.90 in 10.0 mi SSW 15.0 mph - N/A   Partly Cloudy
4:55 AM 75.2 °F 71.6 °F 89% 29.90 in 10.0 mi SSW 17.3 mph - N/A   Scattered Clouds
5:15 AM 75.2 °F 71.6 °F 89% 29.90 in 10.0 mi SSW 17.3 mph - N/A   Mostly Cloudy
5:35 AM 75.2 °F 71.6 °F 89% 29.90 in 10.0 mi SSW 19.6 mph - N/A   Mostly Cloudy
5:55 AM 75.2 °F 71.6 °F 89% 29.91 in 10.0 mi South 19.6 mph - N/A   Scattered Clouds
6:15 AM 75.2 °F 71.6 °F 89% 29.91 in 10.0 mi South 18.4 mph - N/A   Clear
6:35 AM 75.2 °F 71.6 °F 89% 29.92 in 10.0 mi South 19.6 mph - N/A   Partly Cloudy
6:55 AM 75.2 °F 71.6 °F 89% 29.92 in 10.0 mi South 17.3 mph - N/A   Clear
7:15 AM 75.2 °F 71.6 °F 89% 29.93 in 10.0 mi South 18.4 mph - N/A   Clear
7:35 AM 75.2 °F 71.6 °F 89% 29.94 in 10.0 mi South 18.4 mph - N/A   Clear
7:55 AM 75.2 °F 71.6 °F 89% 29.94 in 10.0 mi South 18.4 mph - N/A   Clear
8:15 AM 75.2 °F 71.6 °F 89% 29.95 in 10.0 mi South 17.3 mph - N/A   Clear
8:35 AM 75.2 °F 71.6 °F 89% 29.96 in 10.0 mi South 16.1 mph - N/A   Clear
8:55 AM 75.2 °F 71.6 °F 89% 29.97 in 10.0 mi South 15.0 mph - N/A   Clear
9:15 AM 75.2 °F 71.6 °F 89% 29.97 in 10.0 mi South 17.3 mph - N/A   Scattered Clouds
9:35 AM 75.2 °F 71.6 °F 89% 29.98 in 10.0 mi South 17.3 mph - N/A   Mostly Cloudy
9:55 AM 75.2 °F 71.6 °F 89% 29.98 in 10.0 mi South 17.3 mph - N/A   Partly Cloudy
10:15 AM 75.2 °F 71.6 °F 89% 29.98 in 10.0 mi South 17.3 mph - N/A   Clear
10:35 AM 75.2 °F 71.6 °F 89% 29.98 in 10.0 mi South 16.1 mph - N/A   Scattered Clouds
10:55 AM 75.2 °F 71.6 °F 89% 29.98 in 10.0 mi South 15.0 mph - N/A   Partly Cloudy
11:15 AM 75.2 °F 71.6 °F 89% 29.98 in 10.0 mi South 16.1 mph - N/A   Scattered Clouds
11:35 AM 75.2 °F 71.6 °F 89% 29.97 in 10.0 mi South 15.0 mph - N/A   Mostly Cloudy
11:55 AM 75.2 °F 71.6 °F 89% 29.96 in 10.0 mi SSE 13.8 mph - N/A   Mostly Cloudy
12:15 PM 75.2 °F 71.6 °F 89% 29.94 in 10.0 mi SSE 15.0 mph - N/A   Scattered Clouds
12:35 PM 73.4 °F 71.6 °F 94% 29.93 in 10.0 mi SSE 17.3 mph - N/A   Clear
12:55 PM 73.4 °F 71.6 °F 94% 29.92 in 10.0 mi SSE 17.3 mph - N/A   Clear
1:15 PM 73.4 °F 71.6 °F 94% 29.91 in 10.0 mi SSE 16.1 mph - N/A   Partly Cloudy
1:35 PM 73.4 °F 71.6 °F 94% 29.91 in 10.0 mi SSE 16.1 mph - N/A   Mostly Cloudy
1:55 PM 73.4 °F 71.6 °F 94% 29.91 in 10.0 mi SSE 15.0 mph - N/A   Overcast
2:15 PM 73.4 °F 71.6 °F 94% 29.91 in 10.0 mi South 15.0 mph - N/A   Overcast
2:35 PM 75.2 °F 71.6 °F 89% 29.91 in 10.0 mi South 16.1 mph - N/A   Overcast
2:55 PM 75.2 °F 73.4 °F 94% 29.92 in 10.0 mi South 15.0 mph - N/A   Overcast
3:15 PM 75.2 °F 73.4 °F 94% 29.91 in 10.0 mi South 16.1 mph - N/A   Mostly Cloudy
3:35 PM 75.2 °F 73.4 °F 94% 29.91 in 10.0 mi South 17.3 mph - N/A   Mostly Cloudy
3:55 PM 75.2 °F 73.4 °F 94% 29.91 in 10.0 mi South 19.6 mph - N/A   Scattered Clouds
4:15 PM 75.2 °F 71.6 °F 89% 29.90 in 10.0 mi South 24.2 mph - N/A   Partly Cloudy
4:35 PM 75.2 °F 71.6 °F 89% 29.91 in 10.0 mi South 18.4 mph - N/A   Scattered Clouds
4:55 PM 75.2 °F 73.4 °F 94% 29.92 in 10.0 mi South 20.7 mph - N/A   Mostly Cloudy
5:15 PM 75.2 °F 71.6 °F 89% 29.92 in 10.0 mi South 16.1 mph - N/A   Overcast
5:35 PM 73.4 °F 71.6 °F 94% 29.92 in 10.0 mi South 17.3 mph - N/A   Mostly Cloudy
5:55 PM 73.4 °F 71.6 °F 94% 29.92 in 10.0 mi South 19.6 mph - N/A   Overcast
6:15 PM 75.2 °F 73.4 °F 94% 29.93 in 10.0 mi South 19.6 mph - N/A   Overcast
6:35 PM 75.2 °F 71.6 °F 89% 29.93 in 10.0 mi South 20.7 mph - N/A   Mostly Cloudy
6:55 PM 75.2 °F 73.4 °F 94% 29.94 in 10.0 mi South 21.9 mph - N/A   Mostly Cloudy
7:15 PM 75.2 °F 73.4 °F 94% 29.95 in 10.0 mi South 17.3 mph - N/A   Overcast
7:35 PM 75.2 °F 73.4 °F 94% 29.95 in 10.0 mi South 19.6 mph - N/A   Mostly Cloudy
7:55 PM 73.4 °F 71.6 °F 94% 29.95 in 10.0 mi South 20.7 mph - N/A   Mostly Cloudy
8:15 PM 73.4 °F 71.6 °F 94% 29.95 in 10.0 mi South 19.6 mph - N/A   Mostly Cloudy
8:35 PM 73.4 °F 71.6 °F 94% 29.96 in 10.0 mi South 18.4 mph - N/A   Mostly Cloudy
8:55 PM 73.4 °F 71.6 °F 94% 29.96 in 10.0 mi South 20.7 mph - N/A   Overcast
9:15 PM 73.4 °F 71.6 °F 94% 29.97 in 10.0 mi South 20.7 mph - N/A   Mostly Cloudy
9:35 PM 73.4 °F 71.6 °F 94% 29.98 in 10.0 mi South 19.6 mph - N/A   Mostly Cloudy
9:55 PM 73.4 °F 71.6 °F 94% 29.98 in 10.0 mi South 18.4 mph - N/A   Overcast
10:15 PM 73.4 °F 71.6 °F 94% 29.98 in 10.0 mi South 19.6 mph - N/A   Overcast
10:35 PM 73.4 °F 71.6 °F 94% 29.98 in 10.0 mi South 20.7 mph - N/A   Overcast
10:55 PM 73.4 °F 71.6 °F 94% 29.98 in 10.0 mi South 21.9 mph - N/A   Mostly Cloudy
11:15 PM 73.4 °F 71.6 °F 94% 29.99 in 10.0 mi South 18.4 mph - N/A   Overcast
11:35 PM 73.4 °F 71.6 °F 94% 29.98 in 10.0 mi South 18.4 mph - N/A   Overcast
11:55 PM 73.4 °F 71.6 °F 94% 29.98 in 10.0 mi South 20.7 mph - N/A   Mostly Cloudy